Location: Gad�tanya
(48.0500°N, 20.8500°E)
Time: 23:16:27
(UTC+00:00)

USA 267 - Pass Details

Date: 05 July 2020
Orbit: 1102 x 1106 km, 123.0° (Epoch: 02 August)

Event Time Altitude Azimuth Distance (km) Brightness Sun altitude
Exits shadow 21:33:58 26° 150° (SSE) 2,018 4.1 -17.7°
Maximum altitude 21:37:47 61° 222° (SW) 1,240 3.3 -17.9°
Drops below altitude 10° 21:44:15 10° 302° (WNW) 2,967 6.2 -18.1°
Sets 21:46:48 0° 306° (NW) 3,928 6.9 -18.2°
